SCP
0 0 0 0 0 0 0 0 0 0 0 0 0 0 0 0 0 0 0 0 0 0
0 0 0 0 0 0 0 0 0 0 0 0 0 0 0 0 0 0 0 0 0 0
0 0 0 0 0 0 0 0 0 0 0 0 0 0 0 0 0 0 0 0 0 0
0 0 0 0 0 0 0 0 0 0 0 0 0 0 0 0 0 0 0 0 0 0
0 0 0 0 0 0 0 0 0 0 0 0 0 0 0 0 0 0 0 0 0 0
0 0 0 0 0 0 0 0 0 0 0 0 0 0 0 0 0 0 0 0 0 0
0 0 0 0 0 0 0 0 0 0 0 0 0 0 0 0 0 0 0 0 0 0
0 0 0 0 0 0 0 0 0 0 0 0 0 0 0 0 0 0 0 0 0 0
0 0 0 0 0 0 0 0 0 0 0 0 0 0 0 0 0 0 0 0 0 0
0 0 0 0 0 0 0 0 0 0 0 0 0 0 0 0 0 0 0 0 0 0
0 0 0 0 0 0 0 0 0 0 0 0 0 0 0 0 0 0 0 0 0 0
0 0 0 0 0 0 0 0 0 0 0 0 0 0 0 0 0 0 0 0 0 0
0 0 0 0 0 0 0 0 0 0 0 0 0 0 0 0 0 0 0 0 0 0
0 0 0 0 0 0 0 0 0 0 0 0 0 0 0 0 0 0 0 0 0 0
Wind_Speed_500mb
84 82 79 79 76 70 63 59 50 49 50 48 42 50 51 51 48 46 56 57 57 58
87 85 83 82 75 67 59 54 50 47 44 47 47 52 54 54 54 55 57 58 56 58
89 85 83 82 74 65 57 51 48 51 54 55 54 53 57 60 61 60 61 60 60 59
90 87 84 80 71 64 55 53 58 57 59 60 60 57 63 64 62 60 61 59 57 56
90 88 83 76 72 65 61 63 64 62 61 61 63 60 60 59 58 58 53 51 53 51
87 86 82 77 72 69 64 66 67 65 63 62 59 57 56 54 50 52 52 50 50 50
84 84 79 75 71 67 67 68 69 67 68 65 65 58 53 51 56 58 56 51 39 34
81 77 74 71 68 68 68 67 67 66 61 55 53 49 47 46 40 32 31 28 30 33
74 73 71 71 71 70 68 62 55 50 49 47 43 44 42 32 30 32 31 33 31 30
72 72 73 70 65 61 56 51 49 47 43 39 36 31 28 31 28 28 30 28 27 28
69 66 64 60 56 55 52 48 44 39 36 31 26 26 27 28 28 26 25 24 28 30
64 64 60 58 56 53 47 42 37 33 28 26 28 25 23 24 26 26 26 29 30 31
63 61 59 55 51 45 39 35 33 32 32 31 28 25 25 25 27 28 28 28 29 29
62 59 51 48 45 39 39 39 36 34 33 30 29 30 29 29 28 26 26 27 27 28
Wind_Direction_500mb
239 239 238 239 239 241 242 245 247 247 248 248 250 254 257 256 259 260 264 265 264 272
238 238 237 239 240 242 243 244 246 247 245 252 251 253 256 257 255 257 260 264 263 270
236 237 238 241 242 243 243 243 244 248 247 248 247 250 252 253 255 258 259 262 267 271
236 236 238 241 242 241 242 246 245 244 245 246 246 253 255 255 258 259 261 264 264 263
236 237 239 241 242 241 240 243 245 245 244 246 248 258 254 256 257 259 258 257 259 262
236 237 239 240 241 242 239 237 241 241 241 249 246 252 250 252 250 250 251 252 255 256
233 234 236 237 238 240 240 236 239 244 247 254 256 250 249 248 253 252 249 253 249 248
229 231 233 233 234 236 239 240 244 246 248 246 244 247 248 250 249 241 228 233 242 247
223 223 225 227 229 233 236 238 237 235 234 234 235 235 238 231 230 230 230 230 235 247
222 222 222 222 223 225 223 221 223 225 227 227 227 222 224 223 230 232 232 240 232 242
212 212 212 212 210 213 214 214 216 218 220 222 224 225 223 226 229 233 231 228 229 237
205 204 202 203 203 205 208 211 213 215 215 218 221 221 225 228 230 238 240 241 243 244
199 198 198 200 201 202 206 207 207 211 213 214 218 221 224 228 234 237 244 249 250 250
197 197 196 202 202 202 205 207 207 211 216 219 222 221 222 227 234 237 239 243 249 255
Wind_Speed_850mb
84 82 79 79 76 70 63 59 50 49 50 48 42 50 51 51 48 46 56 57 57 58
87 85 83 82 75 67 59 54 50 47 44 47 47 52 54 54 54 55 57 58 56 58
89 85 83 82 74 65 57 51 48 51 54 55 54 53 57 60 61 60 61 60 60 59
90 87 84 80 71 64 55 53 58 57 59 60 60 57 63 64 62 60 61 59 57 56
90 88 83 76 72 65 61 63 64 62 61 61 63 60 60 59 58 58 53 51 53 51
87 86 82 77 72 69 64 66 67 65 63 62 59 57 56 54 50 52 52 50 50 50
84 84 79 75 71 67 67 68 69 67 68 65 65 58 53 51 56 58 56 51 39 34
81 77 74 71 68 68 68 67 67 66 61 55 53 49 47 46 40 32 31 28 30 33
74 73 71 71 71 70 68 62 55 50 49 47 43 44 42 32 30 32 31 33 31 30
72 72 73 70 65 61 56 51 49 47 43 39 36 31 28 31 28 28 30 28 27 28
69 66 64 60 56 55 52 48 44 39 36 31 26 26 27 28 28 26 25 24 28 30
64 64 60 58 56 53 47 42 37 33 28 26 28 25 23 24 26 26 26 29 30 31
63 61 59 55 51 45 39 35 33 32 32 31 28 25 25 25 27 28 28 28 29 29
62 59 51 48 45 39 39 39 36 34 33 30 29 30 29 29 28 26 26 27 27 28
Wind_Direction_850mb
239 239 238 239 239 241 242 245 247 247 248 248 250 254 257 256 259 260 264 265 264 272
238 238 237 239 240 242 243 244 246 247 245 252 251 253 256 257 255 257 260 264 263 270
236 237 238 241 242 243 243 243 244 248 247 248 247 250 252 253 255 258 259 262 267 271
236 236 238 241 242 241 242 246 245 244 245 246 246 253 255 255 258 259 261 264 264 263
236 237 239 241 242 241 240 243 245 245 244 246 248 258 254 256 257 259 258 257 259 262
236 237 239 240 241 242 239 237 241 241 241 249 246 252 250 252 250 250 251 252 255 256
233 234 236 237 238 240 240 236 239 244 247 254 256 250 249 248 253 252 249 253 249 248
229 231 233 233 234 236 239 240 244 246 248 246 244 247 248 250 249 241 228 233 242 247
223 223 225 227 229 233 236 238 237 235 234 234 235 235 238 231 230 230 230 230 235 247
222 222 222 222 223 225 223 221 223 225 227 227 227 222 224 223 230 232 232 240 232 242
212 212 212 212 210 213 214 214 216 218 220 222 224 225 223 226 229 233 231 228 229 237
205 204 202 203 203 205 208 211 213 215 215 218 221 221 225 228 230 238 240 241 243 244
199 198 198 200 201 202 206 207 207 211 213 214 218 221 224 228 234 237 244 249 250 250
197 197 196 202 202 202 205 207 207 211 216 219 222 221 222 227 234 237 239 243 249 255